Regional Weather Roundup
Issued by NWS

Home | Current Version | Previous Version | Text Only | Print | Product List | Glossary Off
Versions: 1 2 3 4 5 6 7 8 9 10 11 12 13 14 15 16 17 18 19 20 21 22 23 24 25 26 27 28 29 30 31 32 33 34 35 36 37 38 39 40 41 42 43 44 45 46 47 48 49 50

000
ASUS43 KBIS 270201
RWRND

NORTH DAKOTA REGIONAL WEATHER ROUNDUP
NATIONAL WEATHER SERVICE BISMARCK ND
900 PM CDT TUE MAY 26 2015

NOTE: "FAIR" INDICATES FEW OR NO CLOUDS BELOW 12,000 FEET WITH NO
SIGNIFICANT WEATHER AND/OR OBSTRUCTIONS TO VISIBILITY.


NDZ001>003-009>011-017-270300-
NORTHWEST NORTH DAKOTA

CITY           SKY/WX    TMP DP  RH WIND       PRES   REMARKS
WILLISTON      CLEAR     72  42  34 W3        29.86S
MINOT          MOCLDY    68  49  50 S3        29.86F
MINOT AFB      MOCLDY    66  64  90 S9        29.84F
$$

NDZ018>021-031>035-040>046-270300-
SOUTHWEST NORTH DAKOTA

CITY           SKY/WX    TMP DP  RH WIND       PRES   REMARKS
BISMARCK       PTCLDY    67  54  63 CALM      29.87S
DICKINSON      CLEAR     67  48  50 S6        29.89R
GARRISON         N/A     73  44  35 CALM      29.86R
HETTINGER ARPT CLEAR     65  48  54 S3        29.93R
$$

NDZ004>008-012>016-024-026-027-054-270300-
NORTHEAST NORTH DAKOTA

CITY           SKY/WX    TMP DP  RH WIND       PRES   REMARKS
GRAND FORKS    MOCLDY    70  49  47 W8        29.72S
GRND FRKS AFB  MOCLDY    72  52  48 NW3       29.74S
DEVILS LAKE    PTCLDY    73  43  33 NW15      29.79S
$$

NDZ022-023-025-028>030-036>039-047>053-270300-
SOUTHEAST NORTH DAKOTA

CITY           SKY/WX    TMP DP  RH WIND       PRES   REMARKS
FARGO          MOCLDY    68  52  56 SW7       29.75F
JAMESTOWN      PTCLDY    70  47  43 NW14      29.81R
$$



USA.gov is the U.S. government's official web portal to all federal, state and local government web resources and services.